Location: ????????
(41.2031°N, 22.5756°E)
Time: 15:28:55
(UTC+00:00)

Cosmos 1939 Rocket - Pass Details

Date: 01 December 2020
Orbit: 532 x 584 km, 97.4° (Epoch: 20 January)

Event Time Altitude Azimuth Distance (km) Brightness Sun altitude
Rises 15:54:17 0° 141° (SE) 2,672 6.1 -9.9°
Reaches altitude 10° 15:56:34 10° 130° (SE) 1,791 5.1 -10.3°
Maximum altitude 15:59:54 28° 70° (ENE) 1,030 3.6 -10.8°
Drops below altitude 10° 16:03:18 10° 11° (N) 1,823 5.2 -11.4°
Sets 16:05:38 0° 360° (N) 2,730 6.2 -11.9°
